User: anonymous   Login
Location: York
(31.8935°S, 116.7682°E)
Time: 08:45:12
(UTC+08:00)
Language:

CUBEBUG 2 - Orbit

View from above orbital plane
View from above orbital plane
View from above satellite
View from above satellite

Ground track
Ground track

The orbit data is extracted from the following two-line orbital elements,

1 39440U 13066AA  21206.34141835  .00000363  00000-0  56649-4 0  9992
2 39440  97.6784 173.8223 0081206 112.1336 248.8519 14.76272517412010
Epoch (UTC): 25 July 2021 08:11:38
Eccentricity: 0.0081206
inclination: 97.6784°
perigee height: 584 km
apogee height: 698 km
right ascension of ascending node: 173.8223°
argument of perigee: 112.1336°
revolutions per day: 14.76272517
mean anomaly at epoch: 248.8519°
orbit number at epoch: 41201

The dashed part of the orbit path shows where the satellite is in the earth's shadow,  

DLR